Location: Gellin
(53.4498°N, 14.3207°E)
Time: 02:02:58
(UTC+00:00)

ATLAS CENTAUR R/B - Pass Details

Date: 03 March 2021
Orbit: 475 x 670 km, 64.7° (Epoch: 30 March)

Event Time Altitude Azimuth Distance (km) Brightness Sun altitude
Rises 18:20:32 0° 204° (SSW) 2,518 4.9 -15.0°
Reaches altitude 10° 18:22:43 10° 197° (SSW) 1,641 3.8 -15.3°
Maximum altitude 18:26:09 42° 126° (SE) 699 1.4 -15.8°
Enters shadow 18:27:02 35° 89° (E) 799 1.6 -16.0°
